Weather History for Ord, NE

Change the Weather History Date:

Saturday, August 25, 2012

  Actual Average Record
Temperature  
Mean Temperature 74 °F 72 °F  
Max Temperature 85 °F 85 °F 100 °F (2003)
Min Temperature 62 °F 59 °F 47 °F (2010)
Degree Days  
Heating Degree Days 0 0  
Month to date heating degree days 11 0  
Since 1 June heating degree days 27 42  
Since 1 July heating degree days 11 5  
Cooling Degree Days 9 7  
Month to date cooling degree days 187 220  
Year to date cooling degree days 1057 720  
Since 1 June cooling degree days 970 679  
Growing Degree Days 25 (Base 50)    
Moisture  
Dew Point 65 °F    
Average Humidity 69    
Maximum Humidity 93    
Minimum Humidity 44    
Precipitation  
Precipitation 0.01 in 0.10 in 2.65 in (1935)
Month to date precipitation 0.79 2.64  
Year to date precipitation 10.92 18.39  
Sea Level Pressure  
Sea Level Pressure 29.86 in    
Wind  
Wind Speed 3 mph (East)    
Max Wind Speed 12 mph    
Max Gust Speed 14 mph    
Visibility 7 miles    
Events Rain    
T = Trace of Precipitation, MM = Missing Value Source: NWS Daily Summary

Daily Weather History Graph

Daily Weather History Graph

Search for Another Location

Airport:

Trip Planner

Search our weather history database for the weather conditions in past years. The results will help you decide how hot, cold, wet, or windy it might be!

Date:

Astronomy

Aug. 25, 2012 Rise Set
Actual Time 6:55 AM CDT 8:19 PM CDT
Civil Twilight 6:26 AM CDT 8:48 PM CDT
Nautical Twilight 5:51 AM CDT 9:23 PM CDT
Astronomical Twilight 5:14 AM CDT 9:59 PM CDT
Moon 3:57 PM CDT (8/25) 12:37 AM CDT (8/25)
Length of Visible Light 14h 22m
Length of Day
13h 24m
Waxing Gibbous, 63% of the Moon is Illuminated
Aug 25
Waxing Gibbous
Aug 31
Full
Sep 8
Last Quarter
Sep 15
New
Sep 22
First Quarter

Hourly Weather History & Observations

Time (CDT) Temp. Heat Index Dew Point Humidity Pressure Visibility Wind Dir Wind Speed Gust Speed Precip Events Conditions
12:53 AM 69.1 °F - 66.0 °F 90% 29.79 in 5.0 mi SE 6.9 mph - N/A   Overcast
1:53 AM 69.1 °F - 66.0 °F 90% 29.78 in 6.0 mi ESE 4.6 mph - N/A   Overcast
2:53 AM 69.1 °F - 66.0 °F 90% 29.77 in 6.0 mi SSE 3.5 mph - N/A   Overcast
3:53 AM 69.1 °F - 66.0 °F 90% 29.79 in 7.0 mi SE 3.5 mph - N/A   Overcast
4:53 AM 69.1 °F - 66.0 °F 90% 29.81 in 7.0 mi East 3.5 mph - N/A   Overcast
5:53 AM 68.0 °F - 66.0 °F 93% 29.81 in 5.0 mi ESE 5.8 mph - N/A   Overcast
6:53 AM 66.9 °F - 64.9 °F 93% 29.81 in 5.0 mi ESE 5.8 mph - N/A   Overcast
7:53 AM 66.9 °F - 64.9 °F 93% 29.81 in 5.0 mi Calm Calm - N/A   Overcast
8:53 AM 66.9 °F - 64.9 °F 93% 29.84 in 4.0 mi SE 3.5 mph - N/A   Overcast
9:38 AM 68.0 °F - 64.4 °F 88% 29.88 in 2.5 mi South 3.5 mph - 0.00 in Rain Light Rain
9:49 AM 68.0 °F - 66.2 °F 94% 29.88 in 3.0 mi South 3.5 mph - 0.00 in   Overcast
9:53 AM 68.0 °F - 66.0 °F 93% 29.87 in 2.5 mi Calm Calm - 0.00 in   Overcast
10:40 AM 68.0 °F - 66.2 °F 94% 29.90 in 3.0 mi Calm Calm - 0.01 in   Overcast
10:53 AM 68.0 °F - 66.0 °F 93% 29.88 in 4.0 mi Calm Calm - 0.01 in   Overcast
11:00 AM 69.8 °F - 66.2 °F 88% 29.90 in 4.0 mi Calm Calm - N/A   Overcast
11:53 AM 70.0 °F - 66.9 °F 90% 29.89 in 4.0 mi Calm Calm - N/A   Overcast
12:36 PM 71.6 °F - 66.2 °F 83% 29.91 in 5.0 mi North 4.6 mph - N/A   Overcast
12:51 PM 71.6 °F - 66.2 °F 83% 29.91 in 6.0 mi NW 3.5 mph - N/A   Haze
12:53 PM 72.0 °F - 66.9 °F 84% 29.88 in 6.0 mi NNW 3.5 mph - N/A   Haze
1:53 PM 75.0 °F - 66.9 °F 76% 29.88 in 8.0 mi Calm Calm - N/A   Overcast
2:53 PM 77.0 °F - 66.0 °F 69% 29.87 in 10.0 mi NNW 11.5 mph - N/A   Overcast
3:53 PM 81.0 °F 82.7 °F 64.9 °F 58% 29.86 in 10.0 mi NNE 9.2 mph - N/A   Overcast
4:53 PM 82.9 °F 84.0 °F 63.0 °F 51% 29.85 in 10.0 mi Variable 5.8 mph - N/A   Mostly Cloudy
5:53 PM 84.0 °F 84.4 °F 61.0 °F 46% 29.85 in 10.0 mi NNE 4.6 mph - N/A   Partly Cloudy
6:53 PM 81.0 °F 81.9 °F 62.1 °F 52% 29.86 in 10.0 mi NE 3.5 mph - N/A   Mostly Cloudy
7:53 PM 77.0 °F - 62.1 °F 60% 29.87 in 10.0 mi NE 4.6 mph - N/A   Scattered Clouds
8:53 PM 70.0 °F - 62.1 °F 76% 29.90 in 10.0 mi ESE 3.5 mph - N/A   Clear
9:53 PM 71.1 °F - 63.0 °F 75% 29.92 in 10.0 mi Calm Calm - N/A   Overcast
10:53 PM 68.0 °F - 63.0 °F 84% 29.94 in 10.0 mi Calm Calm - N/A   Clear
11:53 PM 63.0 °F - 60.1 °F 90% 29.94 in 10.0 mi Calm Calm - N/A   Clear